START_TIME,STEP,MOV.,M6,t_acc.,M7,t_acc.,M19,t_acc.,H36,t_acc.
1979-07-20 00:00:26.910 ,0,0,0.,12.0,0.,12.0,0.,12.0,0.,12.0
1979-07-20 00:00:38.910 ,0,0,0.,12.0,0.,12.0,0.,12.0,0.,12.0
1979-07-20 00:00:50.910 ,1,1,0.,12.0,0.,12.0,0.,12.0,0.,12.0
1979-07-20 00:01:02.910 ,1,1,0.,12.0,0.,12.0,0.,12.0,0.,12.0
1979-07-20 00:01:14.910 ,1,0,0.,12.0,0.,12.0,0.,12.0,0.,12.0
1979-07-20 00:01:26.910 ,1,0,0.,12.0,0.,12.0,0.,12.0,0.,12.0
1979-07-20 00:01:38.910 ,2,1,0.,12.0,0.,12.0,0.,12.0,0.,12.0
1979-07-20 00:01:50.910 ,2,1,0.,12.0,0.,12.0,0.,12.0,0.,12.0
1979-07-20 00:02:02.910 ,2,0,0.,12.0,0.,12.0,0.,12.0,0.,12.0
1979-07-20 00:02:14.910 ,2,0,0.,12.0,0.,12.0,0.,12.0,0.,12.0
1979-07-20 00:02:26.910 ,3,1,0.,12.0,0.,12.0,0.,12.0,0.,12.0
1979-07-20 00:02:38.910 ,3,1,0.,12.0,0.,12.0,0.,12.0,0.,12.0
1979-07-20 00:02:50.910 ,3,0,1.,12.0,0.,12.0,0.,12.0,0.,12.0
1979-07-20 00:03:02.910 ,3,0,0.,12.0,0.,12.0,0.,12.0,0.,12.0
1979-07-20 00:03:14.910 ,4,1,0.,12.0,0.,12.0,0.,12.0,0.,12.0
1979-07-20 00:03:26.910 ,4,1,0.,12.0,0.,12.0,0.,12.0,0.,12.0
1979-07-20 00:03:38.910 ,4,0,0.,12.0,0.,12.0,0.,12.0,0.,12.0
1979-07-20 00:03:50.910 ,4,0,0.,12.0,0.,12.0,0.,12.0,0.,12.0
1979-07-20 00:04:02.910 ,5,1,0.,12.0,0.,12.0,0.,12.0,0.,12.0
1979-07-20 00:04:14.910 ,5,1,0.,12.0,0.,12.0,0.,12.0,0.,12.0
1979-07-20 00:04:26.910 ,5,0,0.,12.0,0.,12.0,0.,12.0,0.,12.0
1979-07-20 00:04:38.910 ,5,0,0.,12.0,0.,12.0,0.,12.0,0.,12.0
1979-07-20 00:04:50.910 ,6,1,0.,12.0,0.,12.0,0.,12.0,0.,12.0
1979-07-20 00:05:02.910 ,6,1,0.,12.0,0.,12.0,0.,12.0,0.,12.0
1979-07-20 00:05:14.910 ,6,0,0.,12.0,0.,12.0,0.,12.0,0.,12.0
1979-07-20 00:05:26.910 ,6,0,0.,12.0,0.,12.0,0.,12.0,0.,12.0
1979-07-20 00:05:38.910 ,7,1,0.,12.0,0.,12.0,0.,12.0,0.,12.0
1979-07-20 00:05:50.910 ,7,1,0.,12.0,0.,12.0,0.,12.0,0.,12.0
1979-07-20 00:06:02.910 ,7,0,0.,12.0,0.,12.0,0.,12.0,0.,12.0
1979-07-20 00:06:14.910 ,7,0,0.,12.0,0.,12.0,0.,12.0,0.,12.0
1979-07-20 00:06:26.910 ,7,1,0.,12.0,0.,12.0,0.,12.0,0.,12.0
1979-07-20 00:06:38.910 ,7,1,0.,12.0,0.,12.0,0.,12.0,0.,12.0
1979-07-20 00:06:50.910 ,7,0,0.,12.0,0.,12.0,0.,12.0,0.,12.0
1979-07-20 00:07:02.910 ,7,0,0.,12.0,0.,12.0,0.,12.0,0.,12.0
1979-07-20 00:07:14.910 ,6,1,0.,12.0,0.,12.0,0.,12.0,0.,12.0
1979-07-20 00:07:26.910 ,6,1,0.,12.0,0.,12.0,0.,12.0,0.,12.0
1979-07-20 00:07:38.910 ,6,0,0.,12.0,0.,12.0,0.,12.0,0.,12.0
1979-07-20 00:07:50.910 ,6,0,0.,12.0,0.,12.0,0.,12.0,0.,12.0
1979-07-20 00:08:02.910 ,5,1,0.,12.0,0.,12.0,0.,12.0,0.,12.0
1979-07-20 00:08:14.910 ,5,1,0.,12.0,0.,12.0,0.,12.0,0.,12.0
1979-07-20 00:08:26.910 ,5,0,0.,12.0,0.,12.0,0.,12.0,0.,12.0
1979-07-20 00:08:38.910 ,5,0,0.,12.0,0.,12.0,0.,12.0,0.,12.0
1979-07-20 00:08:50.910 ,4,1,0.,12.0,0.,12.0,0.,12.0,0.,12.0
1979-07-20 00:09:02.910 ,4,1,0.,12.0,0.,12.0,0.,12.0,0.,12.0
1979-07-20 00:09:14.910 ,4,0,0.,12.0,0.,12.0,0.,12.0,0.,12.0
1979-07-20 00:09:26.910 ,4,0,0.,12.0,0.,12.0,0.,12.0,0.,12.0
1979-07-20 00:09:38.910 ,3,1,0.,12.0,0.,12.0,0.,12.0,0.,12.0
1979-07-20 00:09:50.910 ,3,1,0.,12.0,0.,12.0,0.,12.0,0.,12.0
1979-07-20 00:10:02.910 ,3,0,0.,12.0,0.,12.0,0.,12.0,0.,12.0
1979-07-20 00:10:14.910 ,3,0,0.,12.0,0.,12.0,0.,12.0,0.,12.0
1979-07-20 00:10:26.910 ,2,1,0.,12.0,0.,12.0,0.,12.0,0.,12.0
1979-07-20 00:10:38.910 ,2,1,0.,12.0,0.,12.0,0.,12.0,0.,12.0
1979-07-20 00:10:50.910 ,2,0,0.,12.0,0.,12.0,0.,12.0,0.,12.0
1979-07-20 00:11:02.910 ,2,0,0.,12.0,0.,12.0,0.,12.0,0.,12.0
1979-07-20 00:11:14.910 ,1,1,0.,12.0,0.,12.0,0.,12.0,0.,12.0
1979-07-20 00:11:26.910 ,1,1,0.,12.0,0.,12.0,0.,12.0,0.,12.0
1979-07-20 00:11:38.910 ,1,0,0.,12.0,0.,12.0,0.,12.0,0.,12.0
1979-07-20 00:11:50.910 ,1,0,0.,12.0,0.,12.0,0.,12.0,0.,12.0
1979-07-20 00:12:02.910 ,0,1,0.,12.0,0.,12.0,0.,12.0,0.,12.0
1979-07-20 00:12:14.910 ,0,1,0.,12.0,0.,12.0,0.,12.0,0.,12.0
1979-07-20 00:12:26.910 ,0,0,0.,12.0,0.,12.0,0.,12.0,0.,12.0
1979-07-20 00:12:38.910 ,0,0,0.,12.0,0.,12.0,0.,12.0,0.,12.0
1979-07-20 00:12:50.910 ,0,1,0.,12.0,0.,12.0,0.,12.0,0.,12.0
1979-07-20 00:13:02.910 ,0,1,0.,12.0,0.,12.0,0.,12.0,0.,12.0
1979-07-20 00:13:14.910 ,0,0,0.,12.0,0.,12.0,0.,12.0,0.,12.0
1979-07-20 00:13:26.910 ,0,0,0.,12.0,0.,12.0,0.,12.0,0.,12.0
1979-07-20 00:13:38.910 ,1,1,0.,12.0,0.,12.0,0.,12.0,0.,12.0
1979-07-20 00:13:50.910 ,1,1,0.,12.0,0.,12.0,0.,12.0,0.,12.0
1979-07-20 00:14:02.910 ,1,0,0.,12.0,0.,12.0,0.,12.0,0.,12.0
1979-07-20 00:14:14.910 ,1,0,0.,12.0,0.,12.0,0.,12.0,0.,12.0
1979-07-20 00:14:26.910 ,2,1,0.,12.0,0.,12.0,0.,12.0,0.,12.0
1979-07-20 00:14:38.910 ,2,1,0.,12.0,0.,12.0,0.,12.0,0.,12.0
1979-07-20 00:14:50.910 ,2,0,0.,12.0,0.,12.0,0.,12.0,0.,12.0
1979-07-20 00:15:02.910 ,2,0,0.,12.0,0.,12.0,0.,12.0,0.,12.0
1979-07-20 00:15:14.910 ,3,1,0.,12.0,0.,12.0,0.,12.0,0.,12.0
1979-07-20 00:15:26.910 ,3,1,0.,12.0,0.,12.0,0.,12.0,0.,12.0
1979-07-20 00:15:38.910 ,3,0,0.,12.0,0.,12.0,0.,12.0,0.,12.0
1979-07-20 00:15:50.910 ,3,0,0.,12.0,0.,12.0,0.,12.0,0.,12.0
1979-07-20 00:16:02.910 ,4,1,0.,12.0,0.,12.0,0.,12.0,0.,12.0
1979-07-20 00:16:14.910 ,4,1,0.,12.0,0.,12.0,0.,12.0,0.,12.0
1979-07-20 00:16:26.910 ,4,0,0.,12.0,0.,12.0,0.,12.0,0.,12.0
1979-07-20 00:16:38.910 ,4,0,0.,12.0,0.,12.0,0.,12.0,0.,12.0
1979-07-20 00:16:50.910 ,5,1,0.,12.0,0.,12.0,0.,12.0,0.,12.0
1979-07-20 00:17:02.910 ,5,1,0.,12.0,0.,12.0,0.,12.0,0.,12.0
1979-07-20 00:17:14.910 ,5,0,0.,12.0,0.,12.0,0.,12.0,0.,12.0
1979-07-20 00:17:26.910 ,5,0,0.,12.0,0.,12.0,0.,12.0,0.,12.0
1979-07-20 00:17:38.910 ,6,1,0.,12.0,0.,12.0,0.,12.0,0.,12.0
1979-07-20 00:17:50.910 ,6,1,0.,12.0,0.,12.0,0.,12.0,0.,12.0
1979-07-20 00:18:02.910 ,6,0,0.,12.0,0.,12.0,0.,12.0,0.,12.0
1979-07-20 00:18:14.910 ,6,0,0.,12.0,0.,12.0,0.,12.0,0.,12.0
1979-07-20 00:18:26.910 ,7,0,0.,12.0,0.,12.0,0.,12.0,0.,12.0
1979-07-20 00:18:38.910 ,7,0,0.,12.0,0.,12.0,0.,12.0,0.,12.0
1979-07-20 00:18:50.910 ,7,0,0.,12.0,0.,12.0,0.,12.0,0.,12.0
1979-07-20 00:19:02.910 ,7,0,0.,12.0,0.,12.0,0.,12.0,0.,12.0
1979-07-20 00:19:14.910 ,4,1,0.,12.0,0.,12.0,0.,12.0,0.,12.0
1979-07-20 00:19:26.910 ,4,1,0.,12.0,0.,12.0,0.,12.0,0.,12.0
1979-07-20 00:19:38.910 ,0,1,0.,12.0,0.,12.0,0.,12.0,0.,12.0
1979-07-20 00:19:50.910 ,0,1,0.,12.0,0.,12.0,0.,12.0,0.,12.0
1979-07-20 00:20:02.910 ,3,1,0.,12.0,0.,12.0,0.,12.0,0.,12.0
1979-07-20 00:20:14.910 ,3,1,0.,12.0,0.,12.0,0.,12.0,0.,12.0
1979-07-20 00:20:26.910 ,7,1,0.,12.0,0.,12.0,0.,12.0,0.,12.0
1979-07-20 00:20:38.910 ,7,1,0.,12.0,0.,12.0,0.,12.0,0.,12.0
1979-07-20 00:20:50.910 ,4,1,0.,12.0,0.,12.0,0.,12.0,0.,12.0
1979-07-20 00:21:02.910 ,4,1,0.,12.0,0.,12.0,0.,12.0,0.,12.0
1979-07-20 00:21:14.910 ,0,1,0.,12.0,0.,12.0,0.,12.0,0.,12.0
1979-07-20 00:21:26.910 ,0,1,0.,12.0,0.,12.0,0.,12.0,0.,12.0
1979-07-20 00:21:38.910 ,3,1,0.,12.0,0.,12.0,0.,12.0,0.,12.0
1979-07-20 00:21:50.910 ,3,1,0.,12.0,0.,12.0,0.,12.0,0.,12.0
1979-07-20 00:22:02.910 ,7,1,0.,12.0,0.,12.0,0.,12.0,0.,12.0
1979-07-20 00:22:14.910 ,7,1,0.,12.0,0.,12.0,0.,12.0,0.,12.0
1979-07-20 00:22:26.910 ,4,1,0.,12.0,0.,12.0,0.,12.0,0.,12.0
1979-07-20 00:22:38.910 ,4,1,0.,12.0,0.,12.0,0.,12.0,0.,12.0
1979-07-20 00:22:50.910 ,0,1,0.,12.0,0.,12.0,0.,12.0,0.,12.0
1979-07-20 00:23:02.910 ,0,1,0.,12.0,0.,12.0,0.,12.0,0.,12.0
1979-07-20 00:23:14.910 ,3,1,0.,12.0,0.,12.0,0.,12.0,0.,12.0
1979-07-20 00:23:26.910 ,3,1,0.,12.0,0.,12.0,0.,12.0,0.,12.0
1979-07-20 00:23:38.910 ,7,1,0.,12.0,0.,12.0,0.,12.0,0.,12.0
1979-07-20 00:23:50.910 ,7,1,0.,12.0,0.,12.0,0.,12.0,0.,12.0
1979-07-20 00:24:02.910 ,4,1,0.,12.0,0.,12.0,0.,12.0,0.,12.0
1979-07-20 00:24:14.910 ,4,1,0.,12.0,0.,12.0,0.,12.0,0.,12.0
1979-07-20 00:24:26.910 ,0,1,0.,12.0,0.,12.0,0.,12.0,0.,12.0
1979-07-20 00:24:38.910 ,0,1,0.,12.0,0.,12.0,0.,12.0,0.,12.0
1979-07-20 00:24:50.910 ,3,1,0.,12.0,0.,12.0,0.,12.0,0.,12.0
1979-07-20 00:25:02.910 ,3,1,0.,12.0,0.,12.0,0.,12.0,0.,12.0
1979-07-20 00:25:14.910 ,7,1,0.,12.0,0.,12.0,0.,12.0,0.,12.0
1979-07-20 00:25:26.910 ,7,1,0.,12.0,0.,12.0,0.,12.0,0.,12.0
1979-07-20 00:25:38.910 ,4,1,0.,12.0,0.,12.0,0.,12.0,0.,12.0
1979-07-20 00:25:50.910 ,4,1,0.,12.0,0.,12.0,0.,12.0,0.,12.0
1979-07-20 00:26:02.910 ,0,1,0.,12.0,0.,12.0,0.,12.0,0.,12.0
1979-07-20 00:26:14.910 ,0,1,0.,12.0,0.,12.0,0.,12.0,0.,12.0
1979-07-20 00:26:26.910 ,3,1,0.,12.0,0.,12.0,0.,12.0,0.,12.0
1979-07-20 00:26:38.910 ,3,1,0.,12.0,0.,12.0,0.,12.0,0.,12.0
1979-07-20 00:26:50.910 ,7,1,0.,12.0,0.,12.0,0.,12.0,0.,12.0
1979-07-20 00:27:02.910 ,7,1,0.,12.0,0.,12.0,0.,12.0,0.,12.0
1979-07-20 00:27:14.910 ,4,1,0.,12.0,0.,12.0,0.,12.0,0.,12.0
1979-07-20 00:27:26.910 ,4,1,0.,12.0,0.,12.0,0.,12.0,0.,12.0
1979-07-20 00:27:38.910 ,0,1,0.,12.0,0.,12.0,0.,12.0,0.,12.0
1979-07-20 00:27:50.910 ,0,1,1.,12.0,0.,12.0,0.,12.0,0.,12.0
1979-07-20 00:28:02.910 ,3,1,0.,12.0,0.,12.0,0.,12.0,0.,12.0
1979-07-20 00:28:14.910 ,3,1,0.,12.0,0.,12.0,0.,12.0,0.,12.0
1979-07-20 00:28:26.910 ,7,1,0.,12.0,0.,12.0,0.,12.0,0.,12.0
1979-07-20 00:28:38.910 ,7,1,0.,12.0,0.,12.0,0.,12.0,0.,12.0
1979-07-20 00:28:50.910 ,4,1,0.,12.0,0.,12.0,0.,12.0,0.,12.0
1979-07-20 00:29:02.910 ,4,1,0.,12.0,0.,12.0,0.,12.0,0.,12.0
1979-07-20 00:29:14.910 ,0,1,0.,12.0,0.,12.0,0.,12.0,0.,12.0
1979-07-20 00:29:26.910 ,0,1,0.,12.0,0.,12.0,0.,12.0,0.,12.0
1979-07-20 00:29:38.910 ,0,0,0.,12.0,0.,12.0,0.,12.0,0.,12.0
1979-07-20 00:29:50.910 ,0,0,0.,12.0,0.,12.0,0.,12.0,0.,12.0
1979-07-20 00:30:02.910 ,0,0,0.,12.0,0.,12.0,0.,12.0,0.,12.0
1979-07-20 00:30:14.910 ,0,0,0.,12.0,0.,12.0,0.,12.0,0.,12.0
1979-07-20 00:30:26.910 ,5,1,0.,12.0,0.,12.0,0.,12.0,0.,12.0
1979-07-20 00:30:38.910 ,5,1,0.,12.0,0.,12.0,0.,12.0,0.,12.0
1979-07-20 00:30:50.910 ,5,0,0.,12.0,0.,12.0,0.,12.0,0.,12.0
1979-07-20 00:31:02.910 ,5,0,0.,12.0,0.,12.0,0.,12.0,0.,12.0
1979-07-20 00:31:14.910 ,4,1,0.,12.0,0.,12.0,0.,12.0,0.,12.0
1979-07-20 00:31:26.910 ,4,1,0.,12.0,0.,12.0,0.,12.0,0.,12.0
1979-07-20 00:31:38.910 ,4,0,0.,12.0,0.,12.0,0.,12.0,0.,12.0
1979-07-20 00:31:50.910 ,4,0,0.,12.0,0.,12.0,0.,12.0,0.,12.0
1979-07-20 00:32:02.910 ,3,1,0.,12.0,0.,12.0,0.,12.0,0.,12.0
1979-07-20 00:32:14.910 ,3,1,0.,12.0,0.,12.0,0.,12.0,0.,12.0
1979-07-20 00:32:26.910 ,3,0,1.,12.0,0.,12.0,0.,12.0,0.,12.0
1979-07-20 00:32:38.910 ,3,0,0.,12.0,0.,12.0,0.,12.0,0.,12.0
1979-07-20 00:32:50.910 ,2,1,0.,12.0,0.,12.0,0.,12.0,0.,12.0
1979-07-20 00:33:02.910 ,2,1,0.,12.0,0.,12.0,0.,12.0,0.,12.0
1979-07-20 00:33:14.910 ,2,0,0.,12.0,0.,12.0,0.,12.0,0.,12.0
1979-07-20 00:33:26.910 ,2,0,0.,12.0,0.,12.0,0.,12.0,0.,12.0
1979-07-20 00:33:38.910 ,1,1,0.,12.0,0.,12.0,0.,12.0,0.,12.0
1979-07-20 00:33:50.910 ,1,1,0.,12.0,0.,12.0,0.,12.0,0.,12.0
1979-07-20 00:34:02.910 ,1,0,0.,12.0,0.,12.0,0.,12.0,0.,12.0
1979-07-20 00:34:14.910 ,1,0,0.,12.0,0.,12.0,0.,12.0,0.,12.0
1979-07-20 00:34:26.910 ,0,1,0.,12.0,0.,12.0,0.,12.0,0.,12.0
1979-07-20 00:34:38.910 ,0,1,0.,12.0,0.,12.0,0.,12.0,0.,12.0
1979-07-20 00:34:50.910 ,0,0,0.,12.0,0.,12.0,0.,12.0,0.,12.0
1979-07-20 00:35:02.910 ,0,0,0.,12.0,0.,12.0,0.,12.0,0.,12.0
1979-07-20 00:35:14.910 ,0,1,0.,12.0,0.,12.0,0.,12.0,0.,12.0
1979-07-20 00:35:26.910 ,0,1,0.,12.0,0.,12.0,0.,12.0,0.,12.0
1979-07-20 00:35:38.910 ,0,0,0.,12.0,0.,12.0,0.,12.0,0.,12.0
1979-07-20 00:35:50.910 ,0,0,0.,12.0,0.,12.0,0.,12.0,0.,12.0
1979-07-20 00:36:02.910 ,1,1,0.,12.0,0.,12.0,0.,12.0,0.,12.0
1979-07-20 00:36:14.910 ,1,1,0.,12.0,0.,12.0,0.,12.0,0.,12.0
1979-07-20 00:36:26.910 ,1,0,0.,12.0,0.,12.0,0.,12.0,0.,12.0
1979-07-20 00:36:38.910 ,1,0,0.,12.0,0.,12.0,0.,12.0,0.,12.0
1979-07-20 00:36:50.910 ,2,1,0.,12.0,0.,12.0,0.,12.0,0.,12.0
1979-07-20 00:37:02.910 ,2,1,0.,12.0,0.,12.0,0.,12.0,0.,12.0
1979-07-20 00:37:14.910 ,2,0,0.,12.0,0.,12.0,0.,12.0,0.,12.0
1979-07-20 00:37:26.910 ,2,0,0.,12.0,0.,12.0,0.,12.0,0.,12.0
1979-07-20 00:37:38.910 ,3,1,0.,12.0,0.,12.0,0.,12.0,0.,12.0
1979-07-20 00:37:50.910 ,3,1,0.,12.0,0.,12.0,0.,12.0,0.,12.0
1979-07-20 00:38:02.910 ,3,0,0.,12.0,0.,12.0,0.,12.0,0.,12.0
1979-07-20 00:38:14.910 ,3,0,0.,12.0,0.,12.0,0.,12.0,0.,12.0
1979-07-20 00:38:26.910 ,4,1,0.,12.0,0.,12.0,0.,12.0,0.,12.0
1979-07-20 00:38:38.910 ,4,1,0.,12.0,0.,12.0,0.,12.0,0.,12.0
1979-07-20 00:38:50.910 ,4,0,0.,12.0,0.,12.0,0.,12.0,0.,12.0
1979-07-20 00:39:02.910 ,4,0,0.,12.0,0.,12.0,0.,12.0,0.,12.0
1979-07-20 00:39:14.910 ,5,1,0.,12.0,0.,12.0,0.,12.0,0.,12.0
1979-07-20 00:39:26.910 ,5,1,0.,12.0,0.,12.0,0.,12.0,0.,12.0
1979-07-20 00:39:38.910 ,5,0,0.,12.0,0.,12.0,0.,12.0,0.,12.0
1979-07-20 00:39:50.910 ,5,0,0.,12.0,0.,12.0,0.,12.0,0.,12.0
1979-07-20 00:40:02.910 ,6,1,0.,12.0,0.,12.0,0.,12.0,0.,12.0
1979-07-20 00:40:14.910 ,6,1,0.,12.0,0.,12.0,0.,12.0,0.,12.0
1979-07-20 00:40:26.910 ,6,0,0.,12.0,0.,12.0,0.,12.0,0.,12.0
1979-07-20 00:40:38.910 ,6,0,0.,12.0,0.,12.0,0.,12.0,0.,12.0
1979-07-20 00:40:50.910 ,7,1,0.,12.0,0.,12.0,0.,12.0,0.,12.0
1979-07-20 00:41:02.910 ,7,1,0.,12.0,0.,12.0,0.,12.0,0.,12.0
1979-07-20 00:41:14.910 ,7,0,0.,12.0,0.,12.0,0.,12.0,0.,12.0
1979-07-20 00:41:26.910 ,7,0,0.,12.0,0.,12.0,0.,12.0,0.,12.0
1979-07-20 00:41:38.910 ,7,1,0.,12.0,0.,12.0,0.,12.0,0.,12.0
1979-07-20 00:41:50.910 ,7,1,0.,12.0,0.,12.0,0.,12.0,0.,12.0
1979-07-20 00:42:02.910 ,7,0,0.,12.0,0.,12.0,0.,12.0,0.,12.0
1979-07-20 00:42:14.910 ,7,0,0.,12.0,0.,12.0,0.,12.0,0.,12.0
1979-07-20 00:42:26.910 ,6,1,0.,12.0,0.,12.0,0.,12.0,0.,12.0
1979-07-20 00:42:38.910 ,6,1,0.,12.0,0.,12.0,0.,12.0,0.,12.0
1979-07-20 00:42:50.910 ,6,0,0.,12.0,0.,12.0,0.,12.0,0.,12.0
1979-07-20 00:43:02.910 ,6,0,0.,12.0,0.,12.0,0.,12.0,0.,12.0
1979-07-20 00:43:14.910 ,5,1,0.,12.0,0.,12.0,0.,12.0,0.,12.0
1979-07-20 00:43:26.910 ,5,1,0.,12.0,0.,12.0,0.,12.0,0.,12.0
1979-07-20 00:43:38.910 ,5,0,0.,12.0,0.,12.0,0.,12.0,0.,12.0
1979-07-20 00:43:50.910 ,5,0,0.,12.0,0.,12.0,0.,12.0,0.,12.0
1979-07-20 00:44:02.910 ,4,1,0.,12.0,0.,12.0,0.,12.0,0.,12.0
1979-07-20 00:44:14.910 ,4,1,0.,12.0,0.,12.0,0.,12.0,0.,12.0
1979-07-20 00:44:26.910 ,4,0,0.,12.0,0.,12.0,0.,12.0,0.,12.0
1979-07-20 00:44:38.910 ,4,0,0.,12.0,0.,12.0,0.,12.0,0.,12.0
1979-07-20 00:44:50.910 ,3,1,0.,12.0,0.,12.0,0.,12.0,0.,12.0
1979-07-20 00:45:02.910 ,3,1,0.,12.0,0.,12.0,0.,12.0,0.,12.0
1979-07-20 00:45:14.910 ,3,0,0.,12.0,0.,12.0,0.,12.0,0.,12.0
1979-07-20 00:45:26.910 ,3,0,0.,12.0,0.,12.0,0.,12.0,0.,12.0
1979-07-20 00:45:38.910 ,2,1,0.,12.0,0.,12.0,0.,12.0,0.,12.0
1979-07-20 00:45:50.910 ,2,1,0.,12.0,0.,12.0,0.,12.0,0.,12.0
1979-07-20 00:46:02.910 ,2,0,0.,12.0,0.,12.0,0.,12.0,0.,12.0
1979-07-20 00:46:14.910 ,2,0,0.,12.0,0.,12.0,0.,12.0,0.,12.0
1979-07-20 00:46:26.910 ,1,1,0.,12.0,0.,12.0,0.,12.0,0.,12.0
1979-07-20 00:46:38.910 ,1,1,0.,12.0,0.,12.0,0.,12.0,0.,12.0
1979-07-20 00:46:50.910 ,1,0,0.,12.0,0.,12.0,0.,12.0,0.,12.0
1979-07-20 00:47:02.910 ,1,0,0.,12.0,0.,12.0,0.,12.0,0.,12.0
1979-07-20 00:47:14.910 ,0,1,0.,12.0,0.,12.0,0.,12.0,0.,12.0
1979-07-20 00:47:26.910 ,0,1,0.,12.0,0.,12.0,0.,12.0,0.,12.0
1979-07-20 00:47:38.910 ,0,0,0.,12.0,0.,12.0,0.,12.0,0.,12.0
1979-07-20 00:47:50.910 ,0,0,0.,12.0,0.,12.0,0.,12.0,0.,12.0
1979-07-20 00:48:02.910 ,0,1,0.,12.0,0.,12.0,0.,12.0,0.,12.0
1979-07-20 00:48:14.910 ,0,1,0.,12.0,0.,12.0,0.,12.0,0.,12.0
1979-07-20 00:48:26.910 ,0,0,0.,12.0,0.,12.0,0.,12.0,0.,12.0
1979-07-20 00:48:38.910 ,0,0,0.,12.0,0.,12.0,0.,12.0,0.,12.0
1979-07-20 00:48:50.910 ,1,1,0.,12.0,0.,12.0,0.,12.0,0.,12.0
1979-07-20 00:49:02.910 ,1,1,0.,12.0,0.,12.0,0.,12.0,0.,12.0
1979-07-20 00:49:14.910 ,1,0,0.,12.0,0.,12.0,0.,12.0,0.,12.0
1979-07-20 00:49:26.910 ,1,0,0.,12.0,0.,12.0,0.,12.0,0.,12.0
1979-07-20 00:49:38.910 ,2,1,0.,12.0,0.,12.0,0.,12.0,0.,12.0
1979-07-20 00:49:50.910 ,2,1,0.,12.0,0.,12.0,0.,12.0,0.,12.0
1979-07-20 00:50:02.910 ,2,0,0.,12.0,0.,12.0,0.,12.0,0.,12.0
1979-07-20 00:50:14.910 ,2,0,0.,12.0,0.,12.0,0.,12.0,0.,12.0
1979-07-20 00:50:26.910 ,3,1,0.,12.0,0.,12.0,0.,12.0,0.,12.0
1979-07-20 00:50:38.910 ,3,1,0.,12.0,0.,12.0,0.,12.0,0.,12.0
1979-07-20 00:50:50.910 ,3,0,0.,12.0,0.,12.0,0.,12.0,0.,12.0
1979-07-20 00:51:02.910 ,3,0,0.,12.0,0.,12.0,0.,12.0,0.,12.0
1979-07-20 00:51:14.910 ,4,1,0.,12.0,0.,12.0,0.,12.0,0.,12.0
1979-07-20 00:51:26.910 ,4,1,0.,12.0,0.,12.0,0.,12.0,0.,12.0
1979-07-20 00:51:38.910 ,4,0,0.,12.0,0.,12.0,0.,12.0,0.,12.0
1979-07-20 00:51:50.910 ,4,0,0.,12.0,0.,12.0,0.,12.0,0.,12.0
1979-07-20 00:52:02.910 ,5,1,0.,12.0,0.,12.0,0.,12.0,0.,12.0
1979-07-20 00:52:14.910 ,5,1,0.,12.0,0.,12.0,0.,12.0,0.,12.0
1979-07-20 00:52:26.910 ,5,0,0.,12.0,0.,12.0,0.,12.0,0.,12.0
1979-07-20 00:52:38.910 ,5,0,0.,12.0,0.,12.0,0.,12.0,0.,12.0
1979-07-20 00:52:50.910 ,6,1,0.,12.0,0.,12.0,0.,12.0,0.,12.0
1979-07-20 00:53:02.910 ,6,1,0.,12.0,0.,12.0,0.,12.0,0.,12.0
1979-07-20 00:53:14.910 ,6,0,0.,12.0,0.,12.0,0.,12.0,0.,12.0
1979-07-20 00:53:26.910 ,6,0,0.,12.0,0.,12.0,0.,12.0,0.,12.0
1979-07-20 00:53:38.910 ,7,1,0.,12.0,0.,12.0,0.,12.0,0.,12.0
1979-07-20 00:53:50.910 ,7,1,0.,12.0,0.,12.0,0.,12.0,0.,12.0
1979-07-20 00:54:02.910 ,7,0,0.,12.0,0.,12.0,0.,12.0,0.,12.0
1979-07-20 00:54:14.910 ,7,0,0.,12.0,0.,12.0,0.,12.0,0.,12.0
1979-07-20 00:54:26.910 ,7,1,0.,12.0,0.,12.0,0.,12.0,0.,12.0
1979-07-20 00:54:38.910 ,7,1,0.,12.0,0.,12.0,0.,12.0,0.,12.0
1979-07-20 00:54:50.910 ,7,0,0.,12.0,0.,12.0,0.,12.0,0.,12.0
1979-07-20 00:55:02.910 ,7,0,0.,12.0,0.,12.0,0.,12.0,0.,12.0
1979-07-20 00:55:14.910 ,6,1,0.,12.0,0.,12.0,0.,12.0,0.,12.0
1979-07-20 00:55:26.910 ,6,1,0.,12.0,0.,12.0,0.,12.0,0.,12.0
1979-07-20 00:55:38.910 ,6,0,0.,12.0,0.,12.0,0.,12.0,0.,12.0
1979-07-20 00:55:50.910 ,6,0,0.,12.0,0.,12.0,0.,12.0,0.,12.0
1979-07-20 00:56:02.910 ,5,1,0.,12.0,0.,12.0,0.,12.0,0.,12.0
1979-07-20 00:56:14.910 ,5,1,0.,12.0,0.,12.0,0.,12.0,0.,12.0
1979-07-20 00:56:26.910 ,5,0,0.,12.0,0.,12.0,0.,12.0,0.,12.0
1979-07-20 00:56:38.910 ,5,0,0.,12.0,0.,12.0,0.,12.0,0.,12.0
1979-07-20 00:56:50.910 ,4,1,0.,12.0,0.,12.0,0.,12.0,0.,12.0
1979-07-20 00:57:02.910 ,4,1,0.,12.0,0.,12.0,0.,12.0,0.,12.0
1979-07-20 00:57:14.910 ,4,0,0.,12.0,0.,12.0,0.,12.0,0.,12.0
1979-07-20 00:57:26.910 ,4,0,0.,12.0,0.,12.0,0.,12.0,0.,12.0
1979-07-20 00:57:38.910 ,3,1,0.,12.0,0.,12.0,0.,12.0,0.,12.0
1979-07-20 00:57:50.910 ,3,1,0.,12.0,0.,12.0,0.,12.0,0.,12.0
1979-07-20 00:58:02.910 ,3,0,0.,12.0,0.,12.0,0.,12.0,0.,12.0
1979-07-20 00:58:14.910 ,3,0,0.,12.0,0.,12.0,0.,12.0,0.,12.0
1979-07-20 00:58:26.910 ,2,1,0.,12.0,0.,12.0,0.,12.0,0.,12.0
1979-07-20 00:58:38.910 ,2,1,0.,12.0,0.,12.0,0.,12.0,0.,12.0
1979-07-20 00:58:50.910 ,2,0,0.,12.0,0.,12.0,0.,12.0,0.,12.0
1979-07-20 00:59:02.910 ,2,0,0.,12.0,0.,12.0,0.,12.0,0.,12.0
1979-07-20 00:59:14.910 ,1,1,0.,12.0,0.,12.0,0.,12.0,0.,12.0
1979-07-20 00:59:26.910 ,1,1,0.,12.0,0.,12.0,0.,12.0,0.,12.0
1979-07-20 00:59:38.910 ,1,0,0.,12.0,0.,12.0,0.,12.0,0.,12.0
1979-07-20 00:59:50.910 ,1,0,0.,12.0,0.,12.0,0.,12.0,0.,12.0
1979-07-20 01:00:02.910 ,0,1,0.,12.0,0.,12.0,0.,12.0,0.,12.0
1979-07-20 01:00:14.910 ,0,1,0.,12.0,0.,12.0,0.,12.0,0.,12.0
1979-07-20 01:00:26.910 ,0,0,0.,12.0,0.,12.0,0.,12.0,0.,12.0
1979-07-20 01:00:38.910 ,0,0,0.,12.0,0.,12.0,0.,12.0,0.,12.0
1979-07-20 01:00:50.910 ,0,1,0.,12.0,0.,12.0,0.,12.0,0.,12.0
1979-07-20 01:01:02.910 ,0,1,0.,12.0,0.,12.0,0.,12.0,0.,12.0
1979-07-20 01:01:14.910 ,0,0,0.,12.0,0.,12.0,0.,12.0,0.,12.0
1979-07-20 01:01:26.910 ,0,0,0.,12.0,0.,12.0,0.,12.0,0.,12.0
1979-07-20 01:01:38.910 ,1,1,0.,12.0,0.,12.0,0.,12.0,0.,12.0
1979-07-20 01:01:50.910 ,1,1,0.,12.0,0.,12.0,0.,12.0,0.,12.0
1979-07-20 01:02:02.910 ,1,0,0.,12.0,0.,12.0,0.,12.0,0.,12.0
1979-07-20 01:02:14.910 ,1,0,0.,12.0,0.,12.0,0.,12.0,0.,12.0
1979-07-20 01:02:26.910 ,2,1,0.,12.0,0.,12.0,0.,12.0,0.,12.0
1979-07-20 01:02:38.910 ,2,1,0.,12.0,0.,12.0,0.,12.0,0.,12.0
1979-07-20 01:02:50.910 ,2,0,0.,12.0,0.,12.0,0.,12.0,0.,12.0
1979-07-20 01:03:02.910 ,2,0,0.,12.0,0.,12.0,0.,12.0,0.,12.0
1979-07-20 01:03:14.910 ,3,1,0.,12.0,0.,12.0,0.,12.0,0.,12.0
1979-07-20 01:03:26.910 ,3,1,0.,12.0,0.,12.0,0.,12.0,0.,12.0
1979-07-20 01:03:38.910 ,3,0,0.,12.0,0.,12.0,0.,12.0,0.,12.0
1979-07-20 01:03:50.910 ,3,0,0.,12.0,0.,12.0,0.,12.0,0.,12.0
1979-07-20 01:04:02.910 ,4,1,0.,12.0,0.,12.0,0.,12.0,0.,12.0
1979-07-20 01:04:14.910 ,4,1,0.,12.0,0.,12.0,0.,12.0,0.,12.0
1979-07-20 01:04:26.910 ,4,0,0.,12.0,0.,12.0,0.,12.0,0.,12.0
1979-07-20 01:04:38.910 ,4,0,0.,12.0,0.,12.0,0.,12.0,0.,12.0
1979-07-20 01:04:50.910 ,5,1,0.,12.0,0.,12.0,0.,12.0,0.,12.0
1979-07-20 01:05:02.910 ,5,1,0.,12.0,0.,12.0,0.,12.0,0.,12.0
1979-07-20 01:05:14.910 ,5,0,0.,12.0,0.,12.0,0.,12.0,0.,12.0
1979-07-20 01:05:26.910 ,5,0,0.,12.0,0.,12.0,0.,12.0,0.,12.0
1979-07-20 01:05:38.910 ,6,1,0.,12.0,0.,12.0,0.,12.0,0.,12.0
1979-07-20 01:05:50.910 ,6,1,0.,12.0,0.,12.0,0.,12.0,0.,12.0
1979-07-20 01:06:02.910 ,6,0,0.,12.0,0.,12.0,0.,12.0,0.,12.0
1979-07-20 01:06:14.910 ,6,0,0.,12.0,0.,12.0,0.,12.0,0.,12.0
1979-07-20 01:06:26.910 ,7,0,0.,12.0,0.,12.0,0.,12.0,0.,12.0
1979-07-20 01:06:38.910 ,7,0,0.,12.0,0.,12.0,0.,12.0,0.,12.0
1979-07-20 01:06:50.910 ,7,0,0.,12.0,0.,12.0,0.,12.0,0.,12.0
1979-07-20 01:07:02.910 ,7,0,0.,12.0,0.,12.0,0.,12.0,0.,12.0
1979-07-20 01:07:14.910 ,4,1,0.,12.0,0.,12.0,0.,12.0,0.,12.0
1979-07-20 01:07:26.910 ,4,1,0.,12.0,0.,12.0,0.,12.0,0.,12.0
1979-07-20 01:07:38.910 ,0,1,0.,12.0,0.,12.0,0.,12.0,0.,12.0
1979-07-20 01:07:50.910 ,0,1,0.,12.0,0.,12.0,0.,12.0,0.,12.0
1979-07-20 01:08:02.910 ,3,1,0.,12.0,0.,12.0,0.,12.0,0.,12.0
1979-07-20 01:08:14.910 ,3,1,0.,12.0,0.,12.0,0.,12.0,0.,12.0
1979-07-20 01:08:26.910 ,7,1,0.,12.0,0.,12.0,0.,12.0,0.,12.0
1979-07-20 01:08:38.910 ,7,1,0.,12.0,0.,12.0,0.,12.0,0.,12.0
1979-07-20 01:08:50.910 ,4,1,0.,12.0,0.,12.0,0.,12.0,0.,12.0
1979-07-20 01:09:02.910 ,4,1,0.,12.0,0.,12.0,0.,12.0,0.,12.0
1979-07-20 01:09:14.910 ,0,1,0.,12.0,0.,12.0,0.,12.0,0.,12.0
1979-07-20 01:09:26.910 ,0,1,0.,12.0,0.,12.0,0.,12.0,0.,12.0
1979-07-20 01:09:38.910 ,3,1,0.,12.0,0.,12.0,0.,12.0,0.,12.0
1979-07-20 01:09:50.910 ,3,1,0.,12.0,0.,12.0,0.,12.0,0.,12.0
1979-07-20 01:10:02.910 ,7,1,0.,12.0,0.,12.0,0.,12.0,0.,12.0
1979-07-20 01:10:14.910 ,7,1,0.,12.0,0.,12.0,0.,12.0,0.,12.0
1979-07-20 01:10:26.910 ,4,1,0.,12.0,0.,12.0,0.,12.0,0.,12.0
1979-07-20 01:10:38.910 ,4,1,0.,12.0,0.,12.0,0.,12.0,0.,12.0
1979-07-20 01:10:50.910 ,0,1,0.,12.0,0.,12.0,0.,12.0,0.,12.0
1979-07-20 01:11:02.910 ,0,1,0.,12.0,0.,12.0,0.,12.0,0.,12.0
1979-07-20 01:11:14.910 ,3,1,0.,12.0,0.,12.0,0.,12.0,0.,12.0
1979-07-20 01:11:26.910 ,3,1,0.,12.0,0.,12.0,0.,12.0,0.,12.0
1979-07-20 01:11:38.910 ,7,1,0.,12.0,0.,12.0,0.,12.0,0.,12.0
1979-07-20 01:11:50.910 ,7,1,0.,12.0,0.,12.0,0.,12.0,0.,12.0
1979-07-20 01:12:02.910 ,4,1,0.,12.0,0.,12.0,0.,12.0,0.,12.0
1979-07-20 01:12:14.910 ,4,1,0.,12.0,0.,12.0,0.,12.0,0.,12.0
1979-07-20 01:12:26.910 ,0,1,0.,12.0,0.,12.0,0.,12.0,0.,12.0
1979-07-20 01:12:38.910 ,0,1,0.,12.0,0.,12.0,0.,12.0,0.,12.0
1979-07-20 01:12:50.910 ,3,1,0.,12.0,0.,12.0,0.,12.0,0.,12.0
1979-07-20 01:13:02.910 ,3,1,0.,12.0,0.,12.0,0.,12.0,0.,12.0
1979-07-20 01:13:14.910 ,7,1,0.,12.0,0.,12.0,0.,12.0,0.,12.0
1979-07-20 01:13:26.910 ,7,1,0.,12.0,0.,12.0,0.,12.0,0.,12.0
1979-07-20 01:13:38.910 ,4,1,0.,12.0,0.,12.0,0.,12.0,0.,12.0
1979-07-20 01:13:50.910 ,4,1,0.,12.0,0.,12.0,0.,12.0,0.,12.0
1979-07-20 01:14:02.910 ,0,1,0.,12.0,0.,12.0,0.,12.0,0.,12.0
1979-07-20 01:14:14.910 ,0,1,0.,12.0,0.,12.0,0.,12.0,0.,12.0
1979-07-20 01:14:26.910 ,3,1,1.,12.0,0.,12.0,0.,12.0,0.,12.0
1979-07-20 01:14:38.910 ,3,1,0.,12.0,0.,12.0,0.,12.0,0.,12.0
1979-07-20 01:14:50.910 ,7,1,0.,12.0,0.,12.0,0.,12.0,0.,12.0
1979-07-20 01:15:02.910 ,7,1,0.,12.0,0.,12.0,0.,12.0,0.,12.0
1979-07-20 01:15:14.910 ,4,1,0.,12.0,0.,12.0,0.,12.0,0.,12.0
1979-07-20 01:15:26.910 ,4,1,0.,12.0,0.,12.0,0.,12.0,0.,12.0
1979-07-20 01:15:38.910 ,0,1,0.,12.0,0.,12.0,0.,12.0,0.,12.0
1979-07-20 01:15:50.910 ,0,1,0.,12.0,0.,12.0,0.,12.0,0.,12.0
1979-07-20 01:16:02.910 ,3,1,0.,12.0,0.,12.0,0.,12.0,0.,12.0
1979-07-20 01:16:14.910 ,3,1,0.,12.0,0.,12.0,0.,12.0,0.,12.0
1979-07-20 01:16:26.910 ,7,1,0.,12.0,0.,12.0,0.,12.0,0.,12.0
1979-07-20 01:16:38.910 ,7,1,0.,12.0,0.,12.0,0.,12.0,0.,12.0
1979-07-20 01:16:50.910 ,4,1,0.,12.0,0.,12.0,0.,12.0,0.,12.0
1979-07-20 01:17:02.910 ,4,1,0.,12.0,0.,12.0,0.,12.0,0.,12.0
1979-07-20 01:17:14.910 ,0,1,0.,12.0,0.,12.0,0.,12.0,0.,12.0
1979-07-20 01:17:26.910 ,0,1,0.,12.0,0.,12.0,0.,12.0,0.,12.0